Regional Weather Roundup
Issued by NWS

Home | Current Version | Previous Version | Text Only | Print | Product List | Glossary On
Versions: 1 2 3 4 5 6 7 8 9 10 11 12 13 14 15 16 17 18 19 20 21 22 23 24 25 26 27 28 29 30 31 32 33 34 35 36 37 38 39 40 41 42 43 44 45 46 47 48 49 50
018
ASUS43 KTOP 251059
RWRKS

WEATHER ROUNDUP FOR KANSAS
NATIONAL WEATHER SERVICE GOODLAND KS
600 AM CDT SUN JUN 25 2017

NOTE:  "FAIR" INDICATES FEW OR NO CLOUDS BELOW 12,000 FEET WITH NO
SIGNIFICANT WEATHER AND/OR OBSTRUCTIONS TO VISIBILITY.

KSZ001>006-013>018-027>032-041>047-251200-
NORTHWEST KANSAS

CITY           SKY/WX    TMP DP  RH WIND       PRES   REMARKS
GOODLAND       CLOUDY    54  53  97 SE7       30.30S
HAYS           CLOUDY    58  55  90 E3        30.30R
HILL CITY      CLOUDY    59  57  93 NE5       30.30S
RUSSELL        CLOUDY    58  54  86 NE7       30.28R
$$

KSZ061>065-074>080-084>089-251200-
SOUTHWEST KANSAS

CITY           SKY/WX    TMP DP  RH WIND       PRES   REMARKS
DODGE CITY     CLOUDY    66  53  63 S6        30.28R
ELKHART          N/A     64  51  62 S7          N/A
GARDEN CITY    CLOUDY    65  51  60 S5        30.28R
GREAT BEND     CLOUDY    64  50  60 SE8       30.28F
LIBERAL        CLOUDY    65  54  67 S9        30.28R
$$

KSZ066>073-081>083-090>101-251200-
SOUTHEAST KANSAS

CITY           SKY/WX    TMP DP  RH WIND       PRES   REMARKS
CHANUTE        MOCLDY    65  53  65 W6        30.27F
COFFEYVILLE    CLOUDY    63  57  81 N3        30.27R
HUTCHINSON     PTCLDY    59  50  72 CALM      30.27S
MEDICINE LODGE   N/A     63  54  72 E7        30.27R
NEWTON         CLOUDY    59  52  77 E3        30.29R
PARSONS        CLOUDY    62  57  83 N3        30.29R
WICHITA INTL   CLOUDY    64  54  69 SE6       30.27F
WICHITA JABRA  PTCLDY    64  53  67 SE3       30.27F
WINFIELD       MOCLDY    62  54  74 E3        30.29S
$$

KSZ007>012-019>026-033>040-048>060-102>105-251200-
NORTHEAST KANSAS

CITY           SKY/WX    TMP DP  RH WIND       PRES   REMARKS
CONCORDIA      MOCLDY    57  52  83 N3        30.30R
EMPORIA        CLOUDY    59  55  87 CALM      30.27R
LAWRENCE       PTCLDY    55  53  93 NW3       30.26R
MANHATTAN      PTCLDY    54  51  90 CALM      30.27S
OLATHE IND     PTCLDY    61  52  72 W6        30.27R
OLATHE EXE     CLEAR     62  52  69 NW7       30.26R
SALINA         CLOUDY    63  56  78 CALM      30.28R
TOPEKA BILLARD PTCLDY    62  54  74 CALM      30.27R
TOPEKA FORBES  PTCLDY    61  53  75 N6        30.27R
$$




USA.gov is the U.S. government's official web portal to all federal, state and local government web resources and services.